Time,TemperatureF,DewpointF,PressureIn,WindDirection,WindDirectionDegrees,WindSpeedMPH,WindSpeedGustMPH,Humidity,HourlyPrecipIn,Conditions,Clouds,dailyrainin,SoftwareType,DateUTC
2013-07-11 00:02:00,64.0,55.0,-100.00,WNW,295,0.0,0.0,73,0.00,,,-99.99,,2013-07-11 05:02:00,
2013-07-11 00:11:00,61.0,56.0,-100.00,West,280,0.0,0.0,83,0.00,,,-99.99,,2013-07-11 05:11:00,
2013-07-11 00:32:00,61.0,56.0,-100.00,West,280,0.0,0.0,83,0.00,,,-99.99,,2013-07-11 05:32:00,
2013-07-11 00:43:00,61.0,56.0,-100.00,West,280,0.0,0.0,83,0.00,,,-99.99,,2013-07-11 05:43:00,
2013-07-11 00:52:00,61.0,56.0,-100.00,West,280,0.0,0.0,83,0.00,,,-99.99,,2013-07-11 05:52:00,
2013-07-11 01:01:00,61.0,56.0,-100.00,West,280,0.0,0.0,83,0.00,,,-99.99,,2013-07-11 06:01:00,
2013-07-11 01:32:00,62.0,55.0,-100.00,WNW,290,0.0,0.0,78,0.00,,,-99.99,,2013-07-11 06:32:00,
2013-07-11 01:43:00,62.0,55.0,-100.00,WNW,290,0.0,0.0,78,0.00,,,-99.99,,2013-07-11 06:43:00,
2013-07-11 01:53:00,62.0,55.0,-100.00,WNW,290,0.0,0.0,78,0.00,,,-99.99,,2013-07-11 06:53:00,
2013-07-11 02:02:00,62.0,55.0,-100.00,WNW,290,0.0,0.0,78,0.00,,,-99.99,,2013-07-11 07:02:00,
2013-07-11 02:10:00,62.0,56.0,-100.00,WNW,290,0.0,0.0,79,0.00,,,-99.99,,2013-07-11 07:10:00,
2013-07-11 02:32:00,62.0,56.0,-100.00,WNW,290,0.0,0.0,79,0.00,,,-99.99,,2013-07-11 07:32:00,
2013-07-11 02:45:00,62.0,56.0,-100.00,WNW,290,0.0,0.0,79,0.00,,,-99.99,,2013-07-11 07:45:00,
2013-07-11 02:53:00,62.0,56.0,-100.00,WNW,290,0.0,0.0,79,0.00,,,-99.99,,2013-07-11 07:53:00,
2013-07-11 03:02:00,62.0,56.0,-100.00,WNW,290,0.0,0.0,79,0.00,,,-99.99,,2013-07-11 08:02:00,
2013-07-11 03:34:00,62.0,57.0,-100.00,WNW,290,0.0,0.0,85,0.00,,,-99.99,,2013-07-11 08:34:00,
2013-07-11 03:43:00,62.0,57.0,-100.00,WNW,290,0.0,0.0,85,0.00,,,-99.99,,2013-07-11 08:43:00,
2013-07-11 03:53:00,62.0,57.0,-100.00,WNW,290,0.0,0.0,85,0.00,,,-99.99,,2013-07-11 08:53:00,
2013-07-11 04:03:00,62.0,57.0,-100.00,WNW,290,0.0,0.0,85,0.00,,,-99.99,,2013-07-11 09:03:00,
2013-07-11 04:33:00,61.0,57.0,-100.00,WNW,300,0.0,0.0,85,0.00,,,-99.99,,2013-07-11 09:33:00,
2013-07-11 04:43:00,61.0,57.0,-100.00,WNW,300,0.0,0.0,85,0.00,,,-99.99,,2013-07-11 09:43:00,
2013-07-11 04:53:00,61.0,57.0,-100.00,WNW,300,0.0,0.0,85,0.00,,,-99.99,,2013-07-11 09:53:00,
2013-07-11 05:01:00,61.0,57.0,-100.00,WNW,300,0.0,0.0,85,0.00,,,-99.99,,2013-07-11 10:01:00,
2013-07-11 05:33:00,60.0,56.0,-100.00,NW,305,0.0,0.0,87,0.00,,,-99.99,,2013-07-11 10:33:00,
2013-07-11 05:43:00,60.0,56.0,-100.00,NW,305,0.0,0.0,87,0.00,,,-99.99,,2013-07-11 10:43:00,
2013-07-11 05:52:00,60.0,56.0,-100.00,NW,305,0.0,0.0,87,0.00,,,-99.99,,2013-07-11 10:52:00,
2013-07-11 06:02:00,60.0,56.0,-100.00,NW,305,0.0,0.0,87,0.00,,,-99.99,,2013-07-11 11:02:00,
2013-07-11 06:33:00,62.0,58.0,-100.00,WNW,290,0.0,0.0,87,0.00,,,-99.99,,2013-07-11 11:33:00,
2013-07-11 08:35:00,68.0,59.0,-100.00,WNW,300,0.0,0.0,73,0.00,,,-99.99,,2013-07-11 13:35:00,
2013-07-11 08:47:00,68.0,59.0,-100.00,WNW,300,0.0,0.0,73,0.00,,,-99.99,,2013-07-11 13:47:00,
2013-07-11 09:05:00,68.0,59.0,-100.00,WNW,300,0.0,0.0,73,0.00,,,-99.99,,2013-07-11 14:05:00,
2013-07-11 09:36:00,71.0,60.0,-100.00,West,265,0.0,0.0,70,0.00,,,-99.99,,2013-07-11 14:36:00,
2013-07-11 09:47:00,71.0,60.0,-100.00,West,265,0.0,0.0,70,0.00,,,-99.99,,2013-07-11 14:47:00,
2013-07-11 09:55:00,71.0,60.0,-100.00,West,265,0.0,0.0,70,0.00,,,-99.99,,2013-07-11 14:55:00,
2013-07-11 10:04:00,71.0,60.0,-100.00,West,265,0.0,0.0,70,0.00,,,-99.99,,2013-07-11 15:04:00,
2013-07-11 10:38:00,75.0,60.0,-100.00,West,275,0.0,0.0,60,0.00,,,-99.99,,2013-07-11 15:38:00,
2013-07-11 10:48:00,75.0,60.0,-100.00,West,275,0.0,0.0,60,0.00,,,-99.99,,2013-07-11 15:48:00,
2013-07-11 10:58:00,75.0,60.0,-100.00,West,275,0.0,0.0,60,0.00,,,-99.99,,2013-07-11 15:58:00,
2013-07-11 11:36:00,78.0,56.0,-100.00,NE,45,0.0,0.0,47,0.00,,,-99.99,,2013-07-11 16:36:00,
2013-07-11 11:49:00,78.0,56.0,-100.00,NE,45,0.0,0.0,47,0.00,,,-99.99,,2013-07-11 16:49:00,
2013-07-11 11:56:00,78.0,56.0,-100.00,NE,45,0.0,0.0,47,0.00,,,-99.99,,2013-07-11 16:56:00,
2013-07-11 12:10:00,81.0,56.0,-100.00,ENE,65,0.0,0.0,43,0.00,,,-99.99,,2013-07-11 17:10:00,
2013-07-11 12:40:00,81.0,56.0,-100.00,ENE,65,0.0,0.0,43,0.00,,,-99.99,,2013-07-11 17:40:00,
2013-07-11 12:49:00,81.0,56.0,-100.00,ENE,65,0.0,0.0,43,0.00,,,-99.99,,2013-07-11 17:49:00,
2013-07-11 12:56:00,81.0,56.0,-100.00,ENE,65,0.0,0.0,43,0.00,,,-99.99,,2013-07-11 17:56:00,
2013-07-11 13:05:00,81.0,56.0,-100.00,ENE,65,0.0,0.0,43,0.00,,,-99.99,,2013-07-11 18:05:00,
2013-07-11 13:36:00,81.0,54.0,-100.00,SW,230,0.0,0.0,39,0.00,,,-99.99,,2013-07-11 18:36:00,
2013-07-11 13:49:00,81.0,54.0,-100.00,SW,230,0.0,0.0,39,0.00,,,-99.99,,2013-07-11 18:49:00,
2013-07-11 13:56:00,81.0,54.0,-100.00,SW,230,0.0,0.0,39,0.00,,,-99.99,,2013-07-11 18:56:00,
2013-07-11 14:04:00,81.0,54.0,-100.00,SW,230,0.0,0.0,39,0.00,,,-99.99,,2013-07-11 19:04:00,
2013-07-11 14:11:00,81.0,54.0,-100.00,SSW,195,0.0,0.0,40,0.00,,,-99.99,,2013-07-11 19:11:00,
2013-07-11 14:39:00,81.0,54.0,-100.00,SSW,195,0.0,0.0,40,0.00,,,-99.99,,2013-07-11 19:39:00,
2013-07-11 14:47:00,81.0,54.0,-100.00,SSW,195,0.0,0.0,40,0.00,,,-99.99,,2013-07-11 19:47:00,
2013-07-11 14:57:00,81.0,54.0,-100.00,SSW,195,0.0,0.0,40,0.00,,,-99.99,,2013-07-11 19:57:00,
2013-07-11 15:06:00,81.0,54.0,-100.00,SSW,195,0.0,0.0,40,0.00,,,-99.99,,2013-07-11 20:06:00,
2013-07-11 15:40:00,84.0,56.0,-100.00,SSW,205,0.0,0.0,39,0.00,,,-99.99,,2013-07-11 20:40:00,
2013-07-11 15:49:00,84.0,56.0,-100.00,SSW,205,0.0,0.0,39,0.00,,,-99.99,,2013-07-11 20:49:00,
2013-07-11 15:56:00,84.0,56.0,-100.00,SSW,205,0.0,0.0,39,0.00,,,-99.99,,2013-07-11 20:56:00,
2013-07-11 16:05:00,84.0,56.0,-100.00,SSW,205,0.0,0.0,39,0.00,,,-99.99,,2013-07-11 21:05:00,
2013-07-11 16:36:00,81.0,57.0,-100.00,SSW,205,0.0,0.0,44,0.00,,,-99.99,,2013-07-11 21:36:00,
2013-07-11 16:46:00,81.0,57.0,-100.00,SSW,205,0.0,0.0,44,0.00,,,-99.99,,2013-07-11 21:46:00,
2013-07-11 16:58:00,81.0,57.0,-100.00,SSW,205,0.0,0.0,44,0.00,,,-99.99,,2013-07-11 21:58:00,
2013-07-11 17:05:00,81.0,57.0,-100.00,SSW,205,0.0,0.0,44,0.00,,,-99.99,,2013-07-11 22:05:00,
2013-07-11 17:10:00,80.0,53.0,-100.00,West,260,0.0,0.0,40,0.00,,,-99.99,,2013-07-11 22:10:00,
2013-07-11 17:36:00,80.0,53.0,-100.00,West,260,0.0,0.0,40,0.00,,,-99.99,,2013-07-11 22:36:00,
2013-07-11 17:49:00,80.0,53.0,-100.00,West,260,0.0,0.0,40,0.00,,,-99.99,,2013-07-11 22:49:00,
2013-07-11 17:55:00,80.0,53.0,-100.00,West,260,0.0,0.0,40,0.00,,,-99.99,,2013-07-11 22:55:00,
2013-07-11 18:06:00,80.0,53.0,-100.00,West,260,0.0,0.0,40,0.00,,,-99.99,,2013-07-11 23:06:00,
2013-07-11 18:37:00,79.0,55.0,-100.00,WSW,250,0.0,0.0,44,0.00,,,-99.99,,2013-07-11 23:37:00,
2013-07-11 18:47:00,79.0,55.0,-100.00,WSW,250,0.0,0.0,44,0.00,,,-99.99,,2013-07-11 23:47:00,
2013-07-11 18:59:00,79.0,55.0,-100.00,WSW,250,0.0,0.0,44,0.00,,,-99.99,,2013-07-11 23:59:00,
2013-07-11 19:05:00,79.0,55.0,-100.00,WSW,250,0.0,0.0,44,0.00,,,-99.99,,2013-07-12 00:05:00,
2013-07-11 19:37:00,77.0,59.0,-100.00,West,280,0.0,0.0,54,0.00,,,-99.99,,2013-07-12 00:37:00,
2013-07-11 19:46:00,77.0,59.0,-100.00,West,280,0.0,0.0,54,0.00,,,-99.99,,2013-07-12 00:46:00,
2013-07-11 19:58:00,77.0,59.0,-100.00,West,280,0.0,0.0,54,0.00,,,-99.99,,2013-07-12 00:58:00,
2013-07-11 20:04:00,77.0,59.0,-100.00,West,280,0.0,0.0,54,0.00,,,-99.99,,2013-07-12 01:04:00,
2013-07-11 20:38:00,74.0,61.0,-100.00,West,265,0.0,0.0,64,0.00,,,-99.99,,2013-07-12 01:38:00,
2013-07-11 20:48:00,74.0,61.0,-100.00,West,265,0.0,0.0,64,0.00,,,-99.99,,2013-07-12 01:48:00,
2013-07-11 20:56:00,74.0,61.0,-100.00,West,265,0.0,0.0,64,0.00,,,-99.99,,2013-07-12 01:56:00,
2013-07-11 21:06:00,74.0,61.0,-100.00,West,265,0.0,0.0,64,0.00,,,-99.99,,2013-07-12 02:06:00,
2013-07-11 21:10:00,71.0,61.0,-100.00,West,265,0.0,0.0,70,0.00,,,-99.99,,2013-07-12 02:10:00,
2013-07-11 21:36:00,71.0,61.0,-100.00,West,265,0.0,0.0,70,0.00,,,-99.99,,2013-07-12 02:36:00,
2013-07-11 21:55:00,71.0,61.0,-100.00,West,265,0.0,0.0,70,0.00,,,-99.99,,2013-07-12 02:55:00,
2013-07-11 22:03:00,71.0,61.0,-100.00,West,265,0.0,0.0,70,0.00,,,-99.99,,2013-07-12 03:03:00,
2013-07-11 22:38:00,69.0,63.0,-100.00,WNW,295,0.0,0.0,80,0.00,,,-99.99,,2013-07-12 03:38:00,
2013-07-11 22:46:00,69.0,63.0,-100.00,WNW,295,0.0,0.0,80,0.00,,,-99.99,,2013-07-12 03:46:00,
2013-07-11 22:56:00,69.0,63.0,-100.00,WNW,295,0.0,0.0,80,0.00,,,-99.99,,2013-07-12 03:56:00,
2013-07-11 23:01:00,69.0,63.0,-100.00,WNW,295,0.0,0.0,80,0.00,,,-99.99,,2013-07-12 04:01:00,
2013-07-11 23:11:00,69.0,62.0,-100.00,WSW,245,0.0,0.0,79,0.00,,,-99.99,,2013-07-12 04:11:00,
2013-07-11 23:32:00,69.0,62.0,-100.00,WSW,245,0.0,0.0,79,0.00,,,-99.99,,2013-07-12 04:32:00,
2013-07-11 23:43:00,69.0,62.0,-100.00,WSW,245,0.0,0.0,79,0.00,,,-99.99,,2013-07-12 04:43:00,
2013-07-11 23:53:00,69.0,62.0,-100.00,WSW,245,0.0,0.0,79,0.00,,,-99.99,,2013-07-12 04:53:00,